This is the latest recevied weather packets stored in our database for station/object NK7I. If no packets are shown the sender has not sent any weather packets the latest 10 day(s).
| Time | Temp. | Humidity | Pressure | Rain* | Wind** | Luminosity | Snow |
|---|---|---|---|---|---|---|---|
| 1777862782 | 21.67° C | 41% | 1006.6 hPa | 0 mm | - | 12 W/m² | - |
| 1777862482 | 22.22° C | 39% | 1006.5 hPa | 0 mm | - | 14 W/m² | - |
| 1777862182 | 22.78° C | 37% | 1006.5 hPa | 0 mm | - | 16 W/m² | - |
| 1777861882 | 22.78° C | 36% | 1006.6 hPa | 0 mm | - | 18 W/m² | - |
| 1777861582 | 23.33° C | 36% | 1006.6 hPa | 0 mm | - | 21 W/m² | - |
| 1777861282 | 23.89° C | 35% | 1006.7 hPa | 0 mm | - | 25 W/m² | - |
| 1777860982 | 23.89° C | 35% | 1006.6 hPa | 0 mm | - | 30 W/m² | - |
| 1777860682 | 23.89° C | 35% | 1006.7 hPa | 0 mm | - | 42 W/m² | - |
| 1777860382 | 23.89° C | 35% | 1006.6 hPa | 0 mm | - | 49 W/m² | - |
| 1777860082 | 24.44° C | 34% | 1006.6 hPa | 0 mm | - | 60 W/m² | - |
| 1777859782 | 24.44° C | 35% | 1006.6 hPa | 0 mm | - | 58 W/m² | - |
| 1777859482 | 24.44° C | 34% | 1006.7 hPa | 0 mm | - | 67 W/m² | - |
| 1777859182 | 25° C | 35% | 1006.7 hPa | 0 mm | - | 93 W/m² | - |
| 1777858882 | 25° C | 35% | 1006.7 hPa | 0 mm | - | 81 W/m² | - |
| 1777858582 | 25° C | 36% | 1006.7 hPa | 0 mm | - | 165 W/m² | - |
| 1777858282 | 25° C | 41% | 1006.7 hPa | 0 mm | - | 204 W/m² | - |
| 1777857982 | 25° C | 35% | 1006.8 hPa | 0 mm | - | 229 W/m² | - |
| 1777857682 | 25° C | 34% | 1006.8 hPa | 0 mm | - | 236 W/m² | - |
| 1777857382 | 25.56° C | 33% | 1006.8 hPa | 0 mm | - | 183 W/m² | - |
| 1777857082 | 25.56° C | 34% | 1006.8 hPa | 0 mm | - | 141 W/m² | - |
| 1777856782 | 25.56° C | 35% | 1006.9 hPa | 0 mm | - | 279 W/m² | - |
| 1777856482 | 25.56° C | 36% | 1006.9 hPa | 0 mm | - | 332 W/m² | - |
| 1777856182 | 25.56° C | 36% | 1006.9 hPa | 0 mm | - | 357 W/m² | - |
| 1777855882 | 25.56° C | 35% | 1007.1 hPa | 0 mm | - | 385 W/m² | - |
| 1777855582 | 25.56° C | 33% | 1007.1 hPa | 0 mm | - | 399 W/m² | - |
* Rain latest hour (hover to see other rain measurements)
** Current wind speed in m/s (hover to see current wind gust speed)